Location: Nians�bougou
(13.2321°N, 4.9818°W)
Time: 08:43:08
(UTC+00:00)

Palapa B4 Rocket - Pass Details

Date: 18 February 2020
Orbit: 502 x 2696 km, 19.7° (Epoch: 08 April)

Event Time Altitude Azimuth Distance (km) Brightness Sun altitude
Exits shadow 04:45:01 63° 344° (NNW) 1,111 4.1 -28.9°
Maximum altitude 04:45:36 66° 14° (NNE) 1,120 4.2 -28.7°
Drops below altitude 10° 04:54:37 10° 95° (E) 3,742 8.0 -26.5°
Sets 04:58:42 0° 98° (E) 5,110 9.1 -25.6°
